Weather History for Ely, MN

Change the Weather History Date:

Friday, November 12, 2010

  Actual Average Record
Temperature  
Mean Temperature 35 °F -  
Max Temperature 42 °F 35 °F 53 °F (2001)
Min Temperature 28 °F 21 °F 5 °F (1996)
Degree Days  
Heating Degree Days 30    
Moisture  
Dew Point 24 °F    
Average Humidity 70    
Maximum Humidity 93    
Minimum Humidity 39    
Precipitation  
Precipitation 0.00 in - - ()
Sea Level Pressure  
Sea Level Pressure 30.36 in    
Wind  
Wind Speed 4 mph (WSW)    
Max Wind Speed 8 mph    
Max Gust Speed -    
Visibility 10 miles    
Events      
Averages and records for this station are not official NWS values.
T = Trace of Precipitation, MM = Missing Value Source: NWS Daily Summary

Daily Weather History Graph

Daily Weather History Graph

Search for Another Location

Airport:

Trip Planner

Search our weather history database for the weather conditions in past years. The results will help you decide how hot, cold, wet, or windy it might be!

Date:

Astronomy

Nov. 12, 2010 Rise Set
Actual Time 7:08 AM CST 4:33 PM CST
Civil Twilight 6:35 AM CST 5:07 PM CST
Nautical Twilight 5:57 AM CST 5:44 PM CST
Astronomical Twilight 5:21 AM CST 6:20 PM CST
Moon 12:35 PM CST (11/12) 10:46 PM CST (11/12)
Length of Visible Light 10h 31m
Length of Day
9h 25m
Waxing Crescent, 41% of the Moon is Illuminated
Nov 12
Waxing Crescent
Nov 13
First Quarter
Nov 21
Full
Nov 28
Last Quarter
Dec 5
New

Hourly Weather History & Observations

Time (CST) Temp. Windchill Dew Point Humidity Pressure Visibility Wind Dir Wind Speed Gust Speed Precip Events Conditions
12:14 AM 35.6 °F 30.7 °F 26.6 °F 70% 30.31 in 10.0 mi WSW 5.8 mph - N/A   Clear
12:33 AM 33.8 °F 28.6 °F 26.6 °F 75% 30.31 in 10.0 mi WSW 5.8 mph - N/A   Clear
12:53 AM 33.8 °F 28.6 °F 26.6 °F 75% 30.31 in 10.0 mi WSW 5.8 mph - N/A   Clear
1:14 AM 32.0 °F 28.7 °F 26.6 °F 80% 30.32 in 10.0 mi SW 3.5 mph - N/A   Clear
1:33 AM 32.0 °F 27.5 °F 26.6 °F 80% 30.32 in 10.0 mi SW 4.6 mph - N/A   Clear
1:53 AM 32.0 °F 28.7 °F 26.6 °F 80% 30.31 in 10.0 mi WSW 3.5 mph - N/A   Clear
2:14 AM 32.0 °F 28.7 °F 26.6 °F 80% 30.31 in 10.0 mi WSW 3.5 mph - N/A   Clear
2:33 AM 32.0 °F 28.7 °F 26.6 °F 80% 30.31 in 10.0 mi WSW 3.5 mph - N/A   Clear
2:53 AM 30.2 °F 26.7 °F 26.6 °F 86% 30.31 in 10.0 mi SSW 3.5 mph - N/A   Clear
3:13 AM 30.2 °F - 26.6 °F 86% 30.32 in 10.0 mi Calm Calm - N/A   Clear
3:34 AM 30.2 °F 26.7 °F 24.8 °F 80% 30.32 in 10.0 mi SSW 3.5 mph - N/A   Clear
3:54 AM 30.2 °F 26.7 °F 26.6 °F 86% 30.32 in 10.0 mi WSW 3.5 mph - N/A   Clear
4:14 AM 30.2 °F 25.4 °F 26.6 °F 86% 30.32 in 10.0 mi WSW 4.6 mph - N/A   Clear
4:33 AM 30.2 °F 25.4 °F 26.6 °F 86% 30.32 in 10.0 mi SW 4.6 mph - N/A   Clear
4:54 AM 30.2 °F - 26.6 °F 86% 30.32 in 10.0 mi Calm Calm - N/A   Clear
5:14 AM 28.4 °F 24.6 °F 26.6 °F 93% 30.33 in 10.0 mi SW 3.5 mph - N/A   Clear
5:33 AM 28.4 °F - 24.8 °F 86% 30.33 in 10.0 mi Calm Calm - N/A   Clear
5:53 AM 28.4 °F 22.2 °F 26.6 °F 93% 30.34 in 10.0 mi SW 5.8 mph - N/A   Clear
6:13 AM 30.2 °F 24.3 °F 26.6 °F 86% 30.35 in 10.0 mi WSW 5.8 mph - N/A   Clear
6:34 AM 30.2 °F 25.4 °F 26.6 °F 86% 30.36 in 10.0 mi WSW 4.6 mph - N/A   Clear
6:53 AM 30.2 °F 24.3 °F 26.6 °F 86% 30.37 in 10.0 mi WSW 5.8 mph - N/A   Scattered Clouds
7:14 AM 30.2 °F 25.4 °F 26.6 °F 86% 30.38 in 10.0 mi WSW 4.6 mph - N/A   Mostly Cloudy
7:33 AM 30.2 °F 25.4 °F 26.6 °F 86% 30.37 in 10.0 mi WSW 4.6 mph - N/A   Mostly Cloudy
7:53 AM 30.2 °F 25.4 °F 26.6 °F 86% 30.38 in 10.0 mi West 4.6 mph - N/A   Mostly Cloudy
8:13 AM 30.2 °F 24.3 °F 26.6 °F 86% 30.39 in 10.0 mi WSW 5.8 mph - N/A   Scattered Clouds
8:33 AM 30.2 °F 24.3 °F 26.6 °F 86% 30.40 in 10.0 mi West 5.8 mph - N/A   Clear
8:54 AM 30.2 °F 23.4 °F 26.6 °F 86% 30.40 in 10.0 mi West 6.9 mph - N/A   Clear
9:13 AM 32.0 °F 25.6 °F 26.6 °F 80% 30.40 in 10.0 mi WSW 6.9 mph - N/A   Clear
9:33 AM 32.0 °F 24.8 °F 26.6 °F 80% 30.41 in 10.0 mi WSW 8.1 mph - N/A   Clear
9:53 AM 33.8 °F 27.7 °F 26.6 °F 75% 30.41 in 10.0 mi WSW 6.9 mph - N/A   Scattered Clouds
10:13 AM 33.8 °F 28.6 °F 26.6 °F 75% 30.41 in 10.0 mi WSW 5.8 mph - N/A   Clear
10:33 AM 33.8 °F 28.6 °F 26.6 °F 75% 30.41 in 10.0 mi WSW 5.8 mph - N/A   Clear
10:53 AM 35.6 °F - 24.8 °F 65% 30.41 in 10.0 mi Calm Calm - N/A   Clear
11:13 AM 35.6 °F 31.7 °F 24.8 °F 65% 30.40 in 10.0 mi SW 4.6 mph - N/A   Clear
11:33 AM 37.4 °F 34.9 °F 24.8 °F 60% 30.39 in 10.0 mi SSW 3.5 mph - N/A   Clear
11:54 AM 37.4 °F 34.9 °F 24.8 °F 60% 30.38 in 10.0 mi West 3.5 mph - N/A   Clear
12:13 PM 39.2 °F 37.0 °F 24.8 °F 56% 30.38 in 10.0 mi West 3.5 mph - N/A   Clear
12:34 PM 39.2 °F 35.9 °F 23.0 °F 52% 30.38 in 10.0 mi WSW 4.6 mph - N/A   Clear
12:54 PM 39.2 °F 35.0 °F 23.0 °F 52% 30.39 in 10.0 mi WSW 5.8 mph - N/A   Clear
1:14 PM 41.0 °F 36.4 °F 23.0 °F 49% 30.39 in 10.0 mi West 6.9 mph - N/A   Clear
1:33 PM 41.0 °F 36.4 °F 21.2 °F 45% 30.39 in 10.0 mi WSW 6.9 mph - N/A   Clear
1:53 PM 42.8 °F 38.6 °F 21.2 °F 42% 30.38 in 10.0 mi WSW 6.9 mph - N/A   Scattered Clouds
2:13 PM 42.8 °F 40.1 °F 21.2 °F 42% 30.37 in 10.0 mi West 4.6 mph - N/A   Scattered Clouds
2:33 PM 41.0 °F 37.1 °F 19.4 °F 42% 30.38 in 10.0 mi WNW 5.8 mph - N/A   Clear
2:53 PM 42.8 °F 40.1 °F 19.4 °F 39% 30.37 in 10.0 mi WSW 4.6 mph - N/A   Clear
3:13 PM 41.0 °F - 17.6 °F 39% 30.38 in 10.0 mi Calm Calm - N/A   Clear
3:33 PM 39.2 °F - 19.4 °F 45% 30.38 in 10.0 mi Calm Calm - N/A   Clear
3:53 PM 39.2 °F - 19.4 °F 45% 30.39 in 10.0 mi Calm Calm - N/A   Clear
4:13 PM 39.2 °F - 17.6 °F 42% 30.39 in 10.0 mi Calm Calm - N/A   Clear
4:33 PM 37.4 °F - 19.4 °F 48% 30.39 in 10.0 mi Calm Calm - N/A   Clear
4:53 PM 35.6 °F - 19.4 °F 52% 30.38 in 10.0 mi Calm Calm - N/A   Clear
5:13 PM 33.8 °F - 21.2 °F 60% 30.38 in 10.0 mi Calm Calm - N/A   Clear
5:33 PM 30.2 °F - 19.4 °F 64% 30.39 in 10.0 mi Calm Calm - N/A   Clear
5:53 PM 28.4 °F - 21.2 °F 74% 30.39 in 10.0 mi Calm Calm - N/A   Clear
6:13 PM 28.4 °F - 21.2 °F 74% 30.38 in 10.0 mi Calm Calm - N/A   Clear
6:33 PM 28.4 °F - 21.2 °F 74% 30.38 in 10.0 mi Calm Calm - N/A   Clear
6:53 PM 28.4 °F - 21.2 °F 74% 30.38 in 10.0 mi Calm Calm - N/A   Clear
7:14 PM 28.4 °F - 21.2 °F 74% 30.38 in 10.0 mi Calm Calm - N/A   Clear
7:33 PM 28.4 °F - 21.2 °F 74% 30.38 in 10.0 mi Calm Calm - N/A   Clear
7:53 PM 26.6 °F - 21.2 °F 80% 30.38 in 10.0 mi Calm Calm - N/A   Clear
8:13 PM 28.4 °F - 23.0 °F 80% 30.38 in 10.0 mi Calm Calm - N/A   Clear
8:33 PM 28.4 °F 24.6 °F 21.2 °F 74% 30.37 in 10.0 mi ESE 3.5 mph - N/A   Clear
8:53 PM 28.4 °F - 23.0 °F 80% 30.37 in 10.0 mi Calm Calm - N/A   Clear
9:14 PM 28.4 °F - 23.0 °F 80% 30.37 in 10.0 mi Calm Calm - N/A   Clear
9:33 PM 26.6 °F - 21.2 °F 80% 30.37 in 10.0 mi Calm Calm - N/A   Clear
9:54 PM 26.6 °F - 21.2 °F 80% 30.37 in 10.0 mi Calm Calm - N/A   Clear
10:14 PM 24.8 °F - 21.2 °F 86% 30.37 in 10.0 mi Calm Calm - N/A   Clear
10:33 PM 26.6 °F - 21.2 °F 80% 30.36 in 10.0 mi Calm Calm - N/A   Clear
10:53 PM 24.8 °F - 21.2 °F 86% 30.36 in 10.0 mi Calm Calm - N/A   Clear
11:14 PM 24.8 °F - 21.2 °F 86% 30.35 in 10.0 mi Calm Calm - N/A   Clear
11:33 PM 23.0 °F - 21.2 °F 93% 30.35 in 10.0 mi Calm Calm - N/A   Clear
11:53 PM 24.8 °F - 21.2 °F 86% 30.35 in 10.0 mi Calm Calm - N/A   Clear